Showing default

AISAT, 40054

Orbit data source: Space-Track

AISAT, 40054 is a payload satellite owned by DLR (DE) in SSO that was launched on Mon, 30 Jun 2014 UTC via a PSLV launch vehicle from the Sirharikota (SRI). Payload-class satellites include a variety of spacecraft equipped with specific instruments for various scientific and technological missions. These include communications satellites like Starlink; space stations such as the ISS; scientific satellites like the Hubble; Earth observation satellites from companies like Planet Labs, Umbra, and HawkEye 360; GPS; miniature CubeSats for education and research; and military/defense satellites.

Loading next visibility...
Identifier
40054, 2014-034B
Orbit
SSO
Country
Flag of DEDE / GER
Related business
Manufacturer
DLR-ISS
Mission
Non-operational Civil Communications
Bus & Motor
CLAVIS, Unknown motor
Mass
10 kg wet, 10 kg dry
Launch date (UTC)
2014-06-30 (11 years ago)
Launch vehicle
PSLV
Launch site
Sirharikota (SRI)
Object type
Payload
Rocket body
Debris
Shape & HBR
Box + 1 Truss, 2.0 m
Radar Cross Section
0.040 m², Medium (>0.1 m² and < 1m²)

Expand to show TLE details & history
Last TLE update: 10 hours ago

TLE from 10 hours ago
0 AISAT
1 40054U 14034B   25261.92371818  .00008680  00000-0  67657-3 0  9996
2 40054  98.2528 150.7605 0012634  52.6995 307.5377 15.01397078606392
Epoch: 2025-09-18T22:10Z
TLE epoch observation values (Epoch: 2025-09-18T22:10:09.25Z)
Latitude
-0.00006°
Longitude
-179.85638°
Altitude
560.29 km
Speed
7.584 km/s
True Right ascension
10h 03m 02s
True Declination
0° 00' 00"
Sunlit
Object was in daylight at epoch
Visualization orbit readout
Latitude
Unknown
Longitude
Unknown
Altitude
Unknown
Speed
Unknown
Apparent Right ascension
Unknown
Apparent Declination
Unknown
Sunlit
N/A
Visualization observer readout
Local Sidereal Time
01:13:12
Azimuth
Unknown
Elevation
Unknown
Doppler factor
Unknown
Orbital elements
Apogee altitude
568.381 km
Perigee altitude
550.851 km
Semi-major axis
6,937.753 km
Eccentricity
0.00126
Inclination
98.2528°
RAAN
150.7605°
Arg. of periapsis
52.6995°
True anomaly
307.42279°
Mean anomaly
307.5377°
Eccentric anomaly
307.48026°
Mean motion
3.75591 °/min
Orbital period
95.85 mins
BSTAR
0.00067657
Loading maneuver chart data...
Computing Atmospheric mass density...
Loading historical data...
Loading historical data...
Loading historical data...
Loading historical data...
Loading historical data...
Loading historical data...
Loading historical data...
Other satellites on launch #34 in the year 2014 (2014-06-30 UTC)

Documentation

Showing up to 5 results
|